Location: Dehesa de la Cepeda
(40.6574°N, 4.3013°W)
Time: 09:13:38
(UTC+00:00)

Delta 2 Rocket - Pass Details

Date: 05 July 2020
Orbit: 415 x 807 km, 35.6° (Epoch: 07 August)

Event Time Altitude Azimuth Distance (km) Brightness Sun altitude
Rises 20:18:58 0° 248° (WSW) 2,455 7.1 -5.2°
Reaches altitude 10° 20:21:19 10° 238° (WSW) 1,540 5.9 -5.6°
Maximum altitude 20:24:26 32° 173° (S) 752 3.7 -6.0°
Drops below altitude 10° 20:27:26 10° 109° (ESE) 1,482 4.9 -6.5°
Enters shadow 20:28:02 - 105° (ESE) 1,710 5.3 -6.6°
